Weather History for Lancaster, OH

Change the Weather History Date:

Sunday, February 16, 2014

  Actual Average Record
Temperature  
Mean Temperature 16 °F -  
Max Temperature 28 °F 39 °F 69 °F (1954)
Min Temperature 1 °F 20 °F -4 °F (1978)
Degree Days  
Heating Degree Days 50    
Moisture  
Dew Point 16 °F    
Average Humidity 78    
Maximum Humidity 91    
Minimum Humidity 65    
Precipitation  
Precipitation 0.00 in - - ()
Sea Level Pressure  
Sea Level Pressure 30.11 in    
Wind  
Wind Speed 5 mph (West)    
Max Wind Speed 15 mph    
Max Gust Speed 21 mph    
Visibility 5 miles    
Events Snow    
Averages and records for this station are not official NWS values.
T = Trace of Precipitation, MM = Missing Value Source: NWS Daily Summary

Daily Weather History Graph

Daily Weather History Graph

Search for Another Location

Airport:

Trip Planner

Search our weather history database for the weather conditions in past years. The results will help you decide how hot, cold, wet, or windy it might be!

Date:

Astronomy

Feb. 16, 2014 Rise Set
Actual Time 7:21 AM EST 6:08 PM EST
Civil Twilight 6:54 AM EST 6:35 PM EST
Nautical Twilight 6:22 AM EST 7:07 PM EST
Astronomical Twilight 5:51 AM EST 7:38 PM EST
Moon 8:03 PM EST (2/16) 7:51 AM EST (2/16)
Length of Visible Light 11h 41m
Length of Day
10h 46m
Full, 97% of the Moon is Illuminated
Feb 16
Full
Feb 22
Last Quarter
Mar 1
New
Mar 8
First Quarter
Mar 16
Full

Hourly Weather History & Observations

Time (EST) Temp. Windchill Dew Point Humidity Pressure Visibility Wind Dir Wind Speed Gust Speed Precip Events Conditions
12:53 AM 3.9 °F - 1.9 °F 91% 30.11 in 3.0 mi Calm Calm - N/A   Scattered Clouds
1:53 AM 5.0 °F - 1.0 °F 84% 30.09 in 4.0 mi Calm Calm - N/A   Mostly Cloudy
2:53 AM 8.1 °F 1.4 °F 3.9 °F 83% 30.08 in 5.0 mi SSW 3.5 mph - N/A   Mostly Cloudy
3:53 AM 10.9 °F 4.7 °F 7.0 °F 84% 30.06 in 5.0 mi South 3.5 mph - N/A   Overcast
4:41 AM 16.0 °F 7.4 °F 12.0 °F 84% 29.98 in 5.0 mi SSE 5.8 mph - N/A   Overcast
4:53 AM 17.1 °F 10.0 °F 12.0 °F 81% 30.02 in 6.0 mi SSE 4.6 mph - N/A   Haze
5:05 AM 17.1 °F 11.7 °F 12.9 °F 84% 29.99 in 6.0 mi SE 3.5 mph - N/A   Overcast
5:35 AM 19.0 °F - 14.0 °F 81% 29.99 in 7.0 mi Calm Calm - N/A   Overcast
5:53 AM 19.9 °F 13.4 °F 15.1 °F 81% 30.02 in 7.0 mi SE 4.6 mph - N/A   Overcast
6:53 AM 19.9 °F 11.1 °F 15.1 °F 81% 30.00 in 8.0 mi SSE 6.9 mph - N/A   Overcast
7:53 AM 21.0 °F 14.6 °F 17.1 °F 85% 30.02 in 7.0 mi SSE 4.6 mph - N/A   Overcast
8:05 AM 21.9 °F 15.7 °F 17.1 °F 82% 29.98 in 7.0 mi SSE 4.6 mph - N/A   Overcast
8:53 AM 23.0 °F 14.7 °F 18.0 °F 81% 30.03 in 4.0 mi South 6.9 mph - N/A   Haze
9:29 AM 23.0 °F 14.7 °F 19.0 °F 85% 29.98 in 2.0 mi SSW 6.9 mph - 0.00 in Snow Light Snow
9:41 AM 23.0 °F 14.7 °F 19.0 °F 85% 29.99 in 2.5 mi SSW 6.9 mph - 0.00 in Snow Light Snow
9:53 AM 24.1 °F 17.0 °F 19.0 °F 81% 30.04 in 2.5 mi SSW 5.8 mph - 0.00 in Snow Light Snow
10:20 AM 24.1 °F 18.2 °F 19.9 °F 84% 30.00 in 3.0 mi Variable 4.6 mph - 0.00 in Snow Light Snow
10:30 AM 24.1 °F 15.2 °F 19.9 °F 84% 30.00 in 2.5 mi WSW 8.1 mph - 0.00 in Snow Light Snow
10:53 AM 25.0 °F 18.1 °F 19.9 °F 81% 30.05 in 2.5 mi WSW 5.8 mph - 0.00 in Snow Light Snow
11:11 AM 26.1 °F 19.4 °F 21.0 °F 81% 30.00 in 4.0 mi West 5.8 mph - 0.00 in Snow Light Snow
11:53 AM 27.0 °F 19.5 °F 21.0 °F 78% 30.06 in 6.0 mi West 6.9 mph - 0.00 in   Haze
12:53 PM 28.0 °F 20.0 °F 21.0 °F 75% 30.06 in 5.0 mi West 8.1 mph - N/A   Haze
1:06 PM 28.0 °F 20.8 °F 21.0 °F 75% 30.02 in 5.0 mi West 6.9 mph - N/A   Haze
1:53 PM 28.0 °F 18.6 °F 21.9 °F 78% 30.07 in 3.0 mi WNW 10.4 mph 17.3 mph N/A   Haze
2:53 PM 27.0 °F 17.3 °F 21.0 °F 78% 30.09 in 2.0 mi NW 10.4 mph - N/A   Haze
3:03 PM 27.0 °F 15.6 °F 21.0 °F 78% 30.06 in 1.8 mi WNW 13.8 mph - N/A   Haze
3:12 PM 27.0 °F 18.7 °F 19.9 °F 75% 30.06 in 2.0 mi WNW 8.1 mph 20.7 mph N/A   Haze
3:17 PM 27.0 °F 18.0 °F 19.9 °F 75% 30.07 in 3.0 mi West 9.2 mph - N/A   Haze
3:39 PM 27.0 °F 16.1 °F 19.0 °F 72% 30.08 in 5.0 mi WNW 12.7 mph 19.6 mph N/A   Haze
3:53 PM 27.0 °F 16.7 °F 19.0 °F 72% 30.14 in 4.0 mi West 11.5 mph - N/A   Haze
4:04 PM 27.0 °F 16.1 °F 18.0 °F 69% 30.10 in 4.0 mi WNW 12.7 mph 18.4 mph N/A   Haze
4:35 PM 27.0 °F 15.6 °F 18.0 °F 69% 30.13 in 4.0 mi WNW 13.8 mph 18.4 mph N/A   Haze
4:47 PM 26.6 °F 15.7 °F 19.4 °F 74% 30.13 in 2.5 mi NW 12.7 mph - 0.00 in Snow Light Snow
4:49 PM 26.6 °F 14.7 °F 19.4 °F 74% 30.13 in 1.8 mi WNW 15.0 mph 20.7 mph 0.00 in Snow Light Snow
4:53 PM 26.1 °F 15.6 °F 19.0 °F 75% 30.17 in 1.0 mi WNW 11.5 mph 20.7 mph 0.00 in Snow Light Snow
5:13 PM 25.0 °F 14.8 °F 18.0 °F 75% 30.15 in 2.0 mi WNW 10.4 mph - 0.00 in Snow Light Snow
5:16 PM 25.0 °F 16.3 °F 18.0 °F 75% 30.15 in 3.0 mi WNW 8.1 mph - 0.00 in Snow Light Snow
5:53 PM 25.0 °F 15.5 °F 17.1 °F 72% 30.21 in 6.0 mi NW 9.2 mph - 0.00 in   Haze
6:53 PM 25.0 °F 16.3 °F 17.1 °F 72% 30.26 in 6.0 mi NW 8.1 mph - N/A   Haze
7:53 PM 24.1 °F 16.0 °F 14.0 °F 65% 30.30 in 8.0 mi NNW 6.9 mph - N/A   Overcast
8:19 PM 23.0 °F 17.0 °F 15.1 °F 72% 30.27 in 8.0 mi NNW 4.6 mph - N/A   Overcast
8:53 PM 23.0 °F 15.8 °F 14.0 °F 68% 30.32 in 9.0 mi NNW 5.8 mph - N/A   Overcast
9:53 PM 19.0 °F 10.0 °F 10.9 °F 71% 30.35 in 10.0 mi North 6.9 mph - N/A   Overcast
10:11 PM 18.0 °F 11.1 °F 10.9 °F 74% 30.32 in 9.0 mi North 4.6 mph - N/A   Scattered Clouds
10:53 PM 8.1 °F - 3.0 °F 80% 30.37 in 6.0 mi Calm Calm - N/A   Haze
11:53 PM 1.9 °F - -0.9 °F 88% 30.37 in 3.0 mi Calm Calm - N/A   Clear